Weather History for KCKV - February, 2013

Change the Weather History Date:

Monday, February 11, 2013

  Actual Average Record
Temperature  
Mean Temperature 52 °F -  
Max Temperature 59 °F - 71 °F (1976)
Min Temperature 44 °F - 4 °F (1979)
Degree Days  
Heating Degree Days 13    
Month to date heating degree days 250  
Since 1 July heating degree days 2477  
Cooling Degree Days 0    
Month to date cooling degree days 0  
Moisture  
Dew Point 33 °F    
Average Humidity 58    
Maximum Humidity 93    
Minimum Humidity 35    
Precipitation  
Precipitation 0.00 in - 1.17 in (1966)
Month to date precipitation 0.54  
Sea Level Pressure  
Sea Level Pressure 30.07 in    
Wind  
Wind Speed 11 mph (West)    
Max Wind Speed 18 mph    
Max Gust Speed 25 mph    
Visibility 10 miles    
Events      
T = Trace of Precipitation, MM = Missing Value Source: NWS Daily Summary

Daily Weather History Graph

Daily Weather History Graph

Search for Another Location

Airport or City:

Trip Planner

Search our weather history database for the weather conditions in past years. The results will help you decide how hot, cold, wet, or windy it might be!

Date:

Astronomy

Feb. 11, 2013 Rise Set
Actual Time 6:41 AM CST 5:26 PM CST
Civil Twilight 6:15 AM CST 5:53 PM CST
Nautical Twilight 5:44 AM CST 6:23 PM CST
Astronomical Twilight 5:14 AM CST 6:53 PM CST
Moon 7:09 AM CST (2/11) 7:18 PM CST (2/11)
Length of Visible Light 11h 37m
Length of Day
10h 44m
Waxing Crescent, 3% of the Moon is Illuminated
Feb 11
Waxing Crescent
Feb 17
First Quarter
Feb 25
Full
Mar 4
Last Quarter
Mar 11
New

Hourly Weather History & Observations

Time (CST) Temp. Windchill Dew Point Humidity Pressure Visibility Wind Dir Wind Speed Gust Speed Precip Events Conditions
12:52 AM 57.9 °F - 54.0 °F 87% 29.90 in 10.0 mi WSW 13.8 mph 19.6 mph N/A   Mostly Cloudy
1:21 AM 57.2 °F - 53.6 °F 88% 29.91 in 10.0 mi WSW 11.5 mph 20.7 mph N/A   Scattered Clouds
1:52 AM 57.0 °F - 52.0 °F 83% 29.93 in 10.0 mi WSW 11.5 mph - N/A   Partly Cloudy
2:52 AM 55.0 °F - 45.0 °F 69% 29.95 in 10.0 mi West 12.7 mph 18.4 mph N/A   Clear
3:52 AM 53.1 °F - 41.0 °F 64% 29.96 in 10.0 mi WSW 9.2 mph - N/A   Clear
4:52 AM 50.0 °F - 39.9 °F 68% 29.98 in 10.0 mi West 8.1 mph - N/A   Clear
5:52 AM 48.9 °F - 34.0 °F 56% 30.01 in 10.0 mi West 12.7 mph - N/A   Clear
6:52 AM 46.9 °F - 32.0 °F 56% 30.05 in 10.0 mi West 15.0 mph - N/A   Clear
7:52 AM 45.0 °F 38.9 °F 32.0 °F 60% 30.07 in 10.0 mi West 12.7 mph - N/A   Clear
8:52 AM 44.1 °F 37.1 °F 30.0 °F 58% 30.10 in 10.0 mi West 15.0 mph 21.9 mph N/A   Clear
9:52 AM 45.0 °F 39.3 °F 28.9 °F 53% 30.13 in 10.0 mi West 11.5 mph - N/A   Clear
10:52 AM 46.9 °F - 28.9 °F 50% 30.12 in 10.0 mi SW 5.8 mph - N/A   Clear
11:52 AM 48.0 °F - 28.9 °F 48% 30.13 in 10.0 mi SW 8.1 mph - N/A   Clear
12:52 PM 50.0 °F - 28.9 °F 44% 30.14 in 10.0 mi WSW 10.4 mph - N/A   Clear
1:52 PM 51.1 °F - 28.9 °F 43% 30.11 in 10.0 mi WSW 8.1 mph - N/A   Clear
2:52 PM 54.0 °F - 27.0 °F 35% 30.10 in 10.0 mi West 6.9 mph - N/A   Clear
3:52 PM 53.1 °F - 26.1 °F 35% 30.09 in 10.0 mi WNW 10.4 mph - N/A   Clear
4:52 PM 51.1 °F - 26.1 °F 38% 30.09 in 10.0 mi WNW 10.4 mph - N/A   Clear
5:52 PM 48.0 °F - 26.1 °F 42% 30.12 in 10.0 mi West 4.6 mph - N/A   Clear
6:52 PM 46.0 °F - 26.1 °F 46% 30.12 in 10.0 mi Calm Calm - N/A   Clear
7:52 PM 42.1 °F 39.2 °F 28.0 °F 58% 30.14 in 10.0 mi WNW 4.6 mph - N/A   Clear
8:52 PM 42.1 °F 40.2 °F 27.0 °F 55% 30.15 in 10.0 mi WSW 3.5 mph - N/A   Clear
9:52 PM 41.0 °F 39.0 °F 28.0 °F 60% 30.16 in 10.0 mi WNW 3.5 mph - N/A   Clear
10:52 PM 37.0 °F - 30.0 °F 76% 30.17 in 10.0 mi Calm Calm - N/A   Clear
11:52 PM 35.1 °F 32.2 °F 28.9 °F 78% 30.16 in 10.0 mi North 3.5 mph - N/A   Clear